Time,TemperatureF,DewpointF,PressureIn,WindDirection,WindDirectionDegrees,WindSpeedMPH,WindSpeedGustMPH,Humidity,HourlyPrecipIn,Conditions,Clouds,dailyrainin,SoftwareType,DateUTC
2013-01-20 00:09:00,40.5,17.0,28.16,ENE,58,1.0,6.0,38,0.00,,,0.00,weatherlink.com 1.10,2013-01-20 05:09:00,
2013-01-20 00:25:00,41.0,16.0,28.16,NE,53,1.0,9.0,36,0.00,,,0.00,weatherlink.com 1.10,2013-01-20 05:25:00,
2013-01-20 00:40:00,40.8,16.0,28.15,WSW,250,0.0,3.0,37,0.00,,,0.00,weatherlink.com 1.10,2013-01-20 05:40:00,
2013-01-20 00:55:00,40.0,17.0,28.16,ENE,61,0.0,2.0,39,0.00,,,0.00,weatherlink.com 1.10,2013-01-20 05:55:00,
2013-01-20 01:10:00,38.7,19.0,28.15,NE,34,0.0,2.0,46,0.00,,,0.00,weatherlink.com 1.10,2013-01-20 06:10:00,
2013-01-20 01:25:00,35.7,21.0,28.15,NE,40,2.0,4.0,55,0.00,,,0.00,weatherlink.com 1.10,2013-01-20 06:25:00,
2013-01-20 01:40:00,33.3,20.0,28.15,ENE,60,0.0,3.0,59,0.00,,,0.00,weatherlink.com 1.10,2013-01-20 06:40:00,
2013-01-20 01:55:00,32.3,21.0,28.15,ENE,58,0.0,2.0,63,0.00,,,0.00,weatherlink.com 1.10,2013-01-20 06:55:00,
2013-01-20 02:10:00,31.8,22.0,28.15,NE,47,1.0,2.0,66,0.00,,,0.00,weatherlink.com 1.10,2013-01-20 07:10:00,
2013-01-20 02:25:00,31.2,22.0,28.14,NNW,336,0.0,1.0,68,0.00,,,0.00,weatherlink.com 1.10,2013-01-20 07:25:00,
2013-01-20 02:40:00,30.4,22.0,28.14,West,277,0.0,2.0,71,0.00,,,0.00,weatherlink.com 1.10,2013-01-20 07:40:00,
2013-01-20 02:55:00,35.3,25.0,28.14,ENE,58,0.0,12.0,66,0.00,,,0.00,weatherlink.com 1.10,2013-01-20 07:55:00,
2013-01-20 03:10:00,42.4,26.0,28.14,SSW,195,2.0,11.0,53,0.00,,,0.00,weatherlink.com 1.10,2013-01-20 08:10:00,
2013-01-20 03:25:00,44.1,26.0,28.14,WSW,238,3.0,11.0,50,0.00,,,0.00,weatherlink.com 1.10,2013-01-20 08:25:00,
2013-01-20 03:40:00,45.2,26.0,28.13,SSW,212,3.0,7.0,48,0.00,,,0.00,weatherlink.com 1.10,2013-01-20 08:40:00,
2013-01-20 03:55:00,45.3,27.0,28.12,SSW,198,5.0,9.0,50,0.00,,,0.00,weatherlink.com 1.10,2013-01-20 08:55:00,
2013-01-20 04:10:00,45.5,27.0,28.12,South,188,0.0,14.0,49,0.00,,,0.00,weatherlink.com 1.10,2013-01-20 09:10:00,
2013-01-20 04:25:00,44.3,27.0,28.12,WSW,252,0.0,4.0,51,0.00,,,0.00,weatherlink.com 1.10,2013-01-20 09:25:00,
2013-01-20 04:40:00,44.6,27.0,28.11,SSW,193,7.0,10.0,51,0.00,,,0.00,weatherlink.com 1.10,2013-01-20 09:40:00,
2013-01-20 04:55:00,44.7,27.0,28.11,SSW,193,2.0,10.0,51,0.00,,,0.00,weatherlink.com 1.10,2013-01-20 09:55:00,
2013-01-20 05:10:00,44.5,28.0,28.11,South,188,1.0,12.0,52,0.00,,,0.00,weatherlink.com 1.10,2013-01-20 10:10:00,
2013-01-20 05:25:00,44.9,29.0,28.10,WSW,252,0.0,13.0,53,0.00,,,0.00,weatherlink.com 1.10,2013-01-20 10:25:00,
2013-01-20 05:40:00,44.8,28.0,28.10,SSW,210,8.0,10.0,53,0.00,,,0.00,weatherlink.com 1.10,2013-01-20 10:40:00,
2013-01-20 05:55:00,44.6,28.0,28.10,SW,222,2.0,11.0,53,0.00,,,0.00,weatherlink.com 1.10,2013-01-20 10:55:00,
2013-01-20 06:10:00,44.5,29.0,28.10,SW,228,3.0,17.0,54,0.00,,,0.00,weatherlink.com 1.10,2013-01-20 11:10:00,
2013-01-20 06:25:00,44.3,29.0,28.10,SW,226,2.0,14.0,55,0.00,,,0.00,weatherlink.com 1.10,2013-01-20 11:25:00,
2013-01-20 06:40:00,44.0,29.0,28.11,SW,220,3.0,12.0,55,0.00,,,0.00,weatherlink.com 1.10,2013-01-20 11:40:00,
2013-01-20 06:55:00,43.9,28.0,28.11,South,185,2.0,16.0,55,0.00,,,0.00,weatherlink.com 1.10,2013-01-20 11:55:00,
2013-01-20 07:10:00,43.4,28.0,28.11,SW,228,1.0,11.0,56,0.00,,,0.00,weatherlink.com 1.10,2013-01-20 12:10:00,
2013-01-20 07:25:00,43.3,29.0,28.11,SSE,155,0.0,10.0,57,0.00,,,0.00,weatherlink.com 1.10,2013-01-20 12:25:00,
2013-01-20 07:40:00,43.0,29.0,28.11,SSE,160,5.0,6.0,57,0.00,,,0.00,weatherlink.com 1.10,2013-01-20 12:40:00,
2013-01-20 07:55:00,43.0,29.0,28.12,South,186,0.0,7.0,58,0.00,,,0.00,weatherlink.com 1.10,2013-01-20 12:55:00,
2013-01-20 08:10:00,43.1,29.0,28.12,South,184,0.0,11.0,58,0.00,,,0.00,weatherlink.com 1.10,2013-01-20 13:10:00,
2013-01-20 08:25:00,43.1,29.0,28.12,SW,225,1.0,8.0,58,0.00,,,0.00,weatherlink.com 1.10,2013-01-20 13:25:00,
2013-01-20 08:40:00,42.9,28.0,28.12,SSW,192,2.0,5.0,57,0.00,,,0.00,weatherlink.com 1.10,2013-01-20 13:40:00,
2013-01-20 08:55:00,43.5,29.0,28.13,SSE,163,3.0,10.0,57,0.00,,,0.00,weatherlink.com 1.10,2013-01-20 13:55:00,
2013-01-20 09:10:00,44.3,29.0,28.13,SW,228,4.0,12.0,56,0.00,,,0.00,weatherlink.com 1.10,2013-01-20 14:10:00,
2013-01-20 09:25:00,45.5,30.0,28.14,SSW,198,7.0,7.0,55,0.00,,,0.00,weatherlink.com 1.10,2013-01-20 14:25:00,
2013-01-20 09:40:00,46.4,30.0,28.12,South,181,5.0,12.0,53,0.00,,,0.00,weatherlink.com 1.10,2013-01-20 14:40:00,
2013-01-20 09:55:00,47.1,29.0,28.13,SSW,211,6.0,18.0,49,0.00,,,0.00,weatherlink.com 1.10,2013-01-20 14:55:00,
2013-01-20 10:11:00,47.9,28.0,28.14,SSW,204,13.0,16.0,46,0.00,,,0.00,weatherlink.com 1.10,2013-01-20 15:11:00,
2013-01-20 10:26:00,47.9,26.0,28.15,South,180,5.0,16.0,43,0.00,,,0.00,weatherlink.com 1.10,2013-01-20 15:26:00,
2013-01-20 10:41:00,48.3,26.0,28.15,SSW,211,2.0,16.0,42,0.00,,,0.00,weatherlink.com 1.10,2013-01-20 15:41:00,
2013-01-20 10:56:00,48.5,26.0,28.16,SW,224,4.0,19.0,41,0.00,,,0.00,weatherlink.com 1.10,2013-01-20 15:56:00,
2013-01-20 11:11:00,48.6,26.0,28.16,SSE,153,1.0,18.0,42,0.00,,,0.00,weatherlink.com 1.10,2013-01-20 16:11:00,
2013-01-20 11:27:00,49.3,26.0,28.15,SW,219,9.0,15.0,41,0.00,,,0.00,weatherlink.com 1.10,2013-01-20 16:27:00,
2013-01-20 11:41:00,49.8,26.0,28.14,SW,228,1.0,7.0,40,0.00,,,0.00,weatherlink.com 1.10,2013-01-20 16:41:00,
2013-01-20 11:56:00,50.1,25.0,28.14,SE,133,3.0,18.0,38,0.00,,,0.00,weatherlink.com 1.10,2013-01-20 16:56:00,
2013-01-20 12:11:00,50.5,24.0,28.15,SSE,165,5.0,12.0,36,0.00,,,0.00,weatherlink.com 1.10,2013-01-20 17:11:00,
2013-01-20 12:26:00,49.9,25.0,28.14,SSW,197,6.0,13.0,38,0.00,,,0.00,weatherlink.com 1.10,2013-01-20 17:26:00,
2013-01-20 12:41:00,49.5,24.0,28.15,SSE,166,7.0,14.0,37,0.00,,,0.00,weatherlink.com 1.10,2013-01-20 17:41:00,
2013-01-20 12:56:00,49.5,24.0,28.14,SW,214,4.0,18.0,37,0.00,,,0.00,weatherlink.com 1.10,2013-01-20 17:56:00,
2013-01-20 13:11:00,49.7,24.0,28.14,South,180,8.0,18.0,37,0.00,,,0.00,weatherlink.com 1.10,2013-01-20 18:11:00,
2013-01-20 13:26:00,49.6,27.0,28.14,South,186,1.0,15.0,42,0.00,,,0.00,weatherlink.com 1.10,2013-01-20 18:26:00,
2013-01-20 13:41:00,50.2,27.0,28.14,WNW,291,1.0,14.0,40,0.00,,,0.00,weatherlink.com 1.10,2013-01-20 18:41:00,
2013-01-20 13:56:00,48.8,21.0,28.15,SW,231,5.0,28.0,33,0.00,,,0.00,weatherlink.com 1.10,2013-01-20 18:56:00,
2013-01-20 14:11:00,48.7,21.0,28.16,NE,46,2.0,10.0,34,0.00,,,0.00,weatherlink.com 1.10,2013-01-20 19:11:00,
2013-01-20 14:26:00,49.2,17.0,28.16,SE,136,0.0,11.0,28,0.00,,,0.00,weatherlink.com 1.10,2013-01-20 19:26:00,
2013-01-20 14:41:00,48.3,16.0,28.17,South,187,14.0,18.0,27,0.00,,,0.00,weatherlink.com 1.10,2013-01-20 19:41:00,
2013-01-20 14:56:00,47.7,14.0,28.17,South,170,2.0,15.0,26,0.00,,,0.00,weatherlink.com 1.10,2013-01-20 19:56:00,
2013-01-20 15:11:00,47.3,15.0,28.18,WSW,243,1.0,12.0,27,0.00,,,0.00,weatherlink.com 1.10,2013-01-20 20:11:00,
2013-01-20 15:41:00,46.5,14.0,28.19,ENE,73,2.0,8.0,27,0.00,,,0.00,weatherlink.com 1.10,2013-01-20 20:41:00,
2013-01-20 15:56:00,45.8,14.0,28.20,East,89,2.0,8.0,28,0.00,,,0.00,weatherlink.com 1.10,2013-01-20 20:56:00,
2013-01-20 16:11:00,44.6,7.0,28.20,NW,307,1.0,7.0,21,0.00,,,0.00,weatherlink.com 1.10,2013-01-20 21:11:00,
2013-01-20 16:26:00,42.7,2.0,28.21,SSE,159,1.0,13.0,18,0.00,,,0.00,weatherlink.com 1.10,2013-01-20 21:26:00,
2013-01-20 16:41:00,41.5,1.0,28.23,West,279,5.0,17.0,18,0.00,,,0.00,weatherlink.com 1.10,2013-01-20 21:41:00,
2013-01-20 16:56:00,40.8,1.0,28.23,SW,228,4.0,13.0,19,0.00,,,0.00,weatherlink.com 1.10,2013-01-20 21:56:00,
2013-01-20 17:11:00,39.9,3.0,28.23,SW,218,4.0,10.0,21,0.00,,,0.00,weatherlink.com 1.10,2013-01-20 22:11:00,
2013-01-20 17:41:00,37.2,8.0,28.23,SSW,206,1.0,5.0,30,0.00,,,0.00,weatherlink.com 1.10,2013-01-20 22:41:00,
2013-01-20 18:11:00,37.4,0.0,28.25,SSW,207,4.0,9.0,20,0.00,,,0.00,weatherlink.com 1.10,2013-01-20 23:11:00,
2013-01-20 18:42:00,37.5,-2.0,28.25,SSW,210,5.0,12.0,19,0.00,,,0.00,weatherlink.com 1.10,2013-01-20 23:42:00,
2013-01-20 18:57:00,37.2,0.0,28.26,SW,236,5.0,7.0,21,0.00,,,0.00,weatherlink.com 1.10,2013-01-20 23:57:00,
2013-01-20 19:12:00,36.7,0.0,28.25,South,181,6.0,9.0,21,0.00,,,0.00,weatherlink.com 1.10,2013-01-21 00:12:00,
2013-01-20 19:27:00,36.3,1.0,28.26,South,172,1.0,6.0,22,0.00,,,0.00,weatherlink.com 1.10,2013-01-21 00:27:00,
2013-01-20 19:42:00,36.3,2.0,28.26,West,266,2.0,6.0,23,0.00,,,0.00,weatherlink.com 1.10,2013-01-21 00:42:00,
2013-01-20 19:57:00,35.8,2.0,28.27,WSW,256,0.0,8.0,24,0.00,,,0.00,weatherlink.com 1.10,2013-01-21 00:57:00,
2013-01-20 20:12:00,35.6,2.0,28.26,ESE,110,1.0,9.0,24,0.00,,,0.00,weatherlink.com 1.10,2013-01-21 01:12:00,
2013-01-20 20:27:00,35.3,3.0,28.26,SSW,199,2.0,10.0,25,0.00,,,0.00,weatherlink.com 1.10,2013-01-21 01:27:00,
2013-01-20 20:42:00,34.3,3.0,28.26,North,354,1.0,2.0,27,0.00,,,0.00,weatherlink.com 1.10,2013-01-21 01:42:00,
2013-01-20 21:12:00,32.1,7.0,28.26,SSW,203,0.0,5.0,35,0.00,,,0.00,weatherlink.com 1.10,2013-01-21 02:12:00,
2013-01-20 21:27:00,32.8,7.0,28.25,SSW,212,1.0,6.0,34,0.00,,,0.00,weatherlink.com 1.10,2013-01-21 02:27:00,
2013-01-20 21:42:00,33.5,5.0,28.26,WNW,297,0.0,8.0,30,0.00,,,0.00,weatherlink.com 1.10,2013-01-21 02:42:00,
2013-01-20 21:57:00,32.9,7.0,28.26,South,184,0.0,5.0,34,0.00,,,0.00,weatherlink.com 1.10,2013-01-21 02:57:00,
2013-01-20 22:12:00,31.0,8.0,28.27,South,183,0.0,1.0,38,0.00,,,0.00,weatherlink.com 1.10,2013-01-21 03:12:00,
2013-01-20 22:27:00,30.4,8.0,28.27,WNW,287,1.0,3.0,39,0.00,,,0.00,weatherlink.com 1.10,2013-01-21 03:27:00,
2013-01-20 22:43:00,30.6,9.0,28.27,SSW,201,0.0,5.0,41,0.00,,,0.00,weatherlink.com 1.10,2013-01-21 03:43:00,
2013-01-20 22:57:00,31.8,9.0,28.27,South,174,0.0,7.0,38,0.00,,,0.00,weatherlink.com 1.10,2013-01-21 03:57:00,
2013-01-20 23:13:00,31.9,9.0,28.28,SW,235,0.0,4.0,39,0.00,,,0.00,weatherlink.com 1.10,2013-01-21 04:13:00,
2013-01-20 23:28:00,31.7,9.0,28.27,South,187,0.0,4.0,39,0.00,,,0.00,weatherlink.com 1.10,2013-01-21 04:28:00,
2013-01-20 23:43:00,30.9,10.0,28.27,NNE,15,0.0,2.0,41,0.00,,,0.00,weatherlink.com 1.10,2013-01-21 04:43:00,
2013-01-20 23:58:00,30.2,11.0,28.27,South,176,0.0,3.0,44,0.00,,,0.00,weatherlink.com 1.10,2013-01-21 04:58:00,